Location: *
(49.0044°N, 9.5056°E)
Time: 18:58:52
(UTC+00:00)

CZ-4 R/B - Pass Details

Date: 22 September 2019
Orbit: 532 x 599 km, 97.8° (Epoch: 19 October)

Event Time Altitude Azimuth Distance (km) Brightness Sun altitude
Rises 18:08:33 0° 188° (S) 2,685 4.8 -8.6°
Reaches altitude 10° 18:10:47 10° 198° (SSW) 1,807 4.1 -9.0°
Maximum altitude 18:14:20 33° 263° (W) 938 3.3 -9.6°
Drops below altitude 10° 18:18:00 10° 329° (NNW) 1,855 4.7 -10.1°
Sets 18:20:20 0° 339° (NNW) 2,768 5.4 -10.5°
